RH
99 101 100 100 100 99 100 100 99 98 94 89 84 83 83 82 81 78 73 67 59 54 51 50 53 53 51 49 45 42 37 34 37 46 54 58 61 64 64 63 62 59 58 57 61 76 86 87 84 69 42 23 21 30 49 74 90 94 97 96 87 84 89 92 95 98 97 97 86 61 44 39 39 45
89 95 97 100 101 100 101 101 99 99 98 95 89 86 85 85 86 82 77 72 62 55 52 49 52 55 52 50 47 43 38 34 38 48 58 65 67 68 69 66 63 61 59 58 60 60 59 61 59 46 29 19 16 27 53 78 90 95 99 99 96 94 95 96 98 97 97 100 91 68 48 34 30 33
68 79 88 96 100 99 100 100 100 99 99 98 95 91 86 86 91 89 83 77 64 57 55 51 53 57 55 52 49 46 41 35 38 48 54 63 69 70 70 68 66 66 64 63 60 52 47 49 44 30 24 21 20 35 66 88 94 96 98 97 96 97 97 98 99 98 99 99 91 79 66 48 31 25
47 56 66 78 89 97 100 100 101 101 100 99 98 97 92 87 94 95 90 83 68 60 59 55 57 59 57 56 52 48 44 37 37 45 50 57 67 71 71 70 69 70 69 65 58 51 48 47 39 29 24 20 19 30 54 80 92 95 96 95 95 98 99 98 97 96 96 95 93 89 84 73 49 24
36 37 41 47 58 75 90 97 100 99 100 101 99 99 97 93 97 100 97 89 74 64 62 59 59 60 59 59 56 51 46 40 38 42 47 55 64 68 69 70 70 69 66 61 56 51 46 41 34 27 22 19 20 22 36 63 79 86 93 96 97 99 99 99 99 96 90 80 73 69 67 65 47 23
39 37 35 33 35 47 67 86 99 102 100 100 101 101 100 99 100 100 99 95 81 69 68 65 61 62 63 62 60 55 49 42 39 40 43 50 59 64 67 68 67 65 62 59 54 48 43 39 32 26 21 21 23 26 39 63 76 81 91 94 93 90 85 81 78 72 61 47 36 32 30 29 22 19
43 40 37 34 29 33 45 62 81 97 102 101 100 100 100 101 101 100 100 100 88 73 69 66 61 62 66 65 62 58 51 43 39 41 46 53 61 67 70 69 65 62 63 60 54 47 42 36 30 24 21 22 25 27 33 49 59 61 64 64 61 55 47 42 38 33 28 22 17 17 17 18 18 23
46 45 47 44 38 44 56 62 70 85 97 102 101 100 101 100 100 100 101 101 93 79 68 63 60 62 67 67 63 58 53 43 37 40 49 59 65 69 71 70 67 64 64 60 52 46 40 34 27 22 22 24 29 31 31 33 35 33 32 33 31 29 27 25 23 22 21 18 17 18 18 20 22 25
50 51 54 53 59 79 94 92 92 95 97 101 101 99 100 100 100 100 100 101 96 84 72 65 62 64 69 70 66 59 53 45 38 38 48 58 65 68 69 68 66 65 62 56 49 45 38 31 26 23 25 28 31 33 33 33 32 30 29 29 27 26 25 24 23 22 20 18 18 18 18 21 24 27
57 55 53 50 62 91 104 98 96 99 99 101 102 99 98 99 101 100 100 102 98 88 78 70 66 69 74 75 69 61 54 47 40 37 44 55 62 65 67 65 61 59 56 50 46 42 36 30 28 28 30 34 35 34 34 34 33 32 31 29 29 28 26 25 24 22 21 20 19 19 21 24 28 30
68 65 62 57 58 77 98 102 98 95 95 98 100 101 100 99 100 101 100 100 100 94 85 75 72 74 79 79 73 64 56 49 42 40 46 55 59 61 63 61 58 56 52 48 45 40 36 33 33 35 36 38 38 36 35 36 34 33 32 30 29 28 26 26 25 23 23 21 21 24 24 26 34 35
90 86 83 79 69 65 78 93 95 93 96 99 99 100 101 100 100 101 100 100 101 99 90 80 75 77 81 84 78 67 59 52 46 43 45 50 53 57 60 60 59 55 49 47 44 39 40 40 39 40 41 40 38 37 36 35 34 33 31 30 29 28 28 27 25 24 24 23 25 26 26 39 54 48
101 101 98 97 89 75 70 77 86 93 98 100 100 100 101 101 100 100 100 100 101 100 92 82 77 79 83 85 77 66 58 52 47 42 42 48 55 60 64 63 59 54 50 48 44 41 43 45 46 46 45 41 38 37 36 35 34 33 31 31 30 29 28 27 26 26 26 26 28 30 40 64 75 61
100 103 103 97 90 83 77 74 81 95 104 103 99 98 101 102 100 100 101 100 101 101 92 79 76 79 83 82 73 63 56 51 46 43 43 51 59 64 67 66 58 52 49 47 44 43 45 49 51 50 45 40 38 38 37 34 33 32 32 32 31 30 30 29 27 28 28 29 35 47 65 83 84 74
97 100 101 94 86 83 83 80 80 86 95 102 101 97 100 103 100 100 101 100 101 102 91 78 75 78 81 80 71 61 56 52 46 42 44 54 63 66 67 65 57 49 47 49 49 46 48 54 55 48 42 39 39 38 37 36 37 36 34 32 30 29 30 31 33 39 45 51 62 73 82 89 91 91
98 98 97 93 87 80 81 91 95 87 84 95 101 97 98 102 100 99 100 100 101 100 90 78 77 79 81 80 73 64 60 53 45 44 49 59 65 65 64 62 56 48 47 53 58 52 50 56 56 46 41 43 43 41 41 44 42 37 34 36 41 47 52 61 73 79 82 84 86 87 87 90 95 98
101 100 98 98 96 85 81 90 98 93 90 96 99 95 95 101 101 99 99 100 100 100 91 79 76 80 82 79 73 68 64 54 46 46 51 59 64 63 61 58 53 49 49 56 63 55 50 57 57 47 46 54 54 51 59 65 58 52 62 73 80 88 92 92 92 86 80 78 76 79 88 96 97 98
101 101 100 101 100 96 91 90 91 96 100 101 99 94 92 97 102 100 99 100 100 101 94 82 79 83 83 77 72 69 64 53 46 47 50 57 61 59 58 57 53 53 56 63 67 57 52 64 66 55 58 70 71 72 86 93 81 76 91 99 97 96 92 81 69 57 49 50 55 67 87 98 97 95
97 94 93 93 92 91 87 77 77 92 101 100 100 98 93 95 101 101 99 100 101 100 92 83 84 85 80 76 74 70 62 52 47 50 54 59 61 60 62 61 58 61 66 71 70 57 59 82 83 65 68 81 85 91 100 99 87 80 85 90 89 84 74 64 55 42 30 34 51 72 90 99 97 94
92 83 81 84 85 87 82 69 67 84 99 101 101 101 97 98 101 101 99 100 101 96 87 83 88 87 81 80 77 68 60 53 51 55 60 63 65 68 72 69 67 73 74 73 69 54 59 89 91 73 78 93 96 99 101 99 96 91 87 87 82 76 76 79 78 65 53 56 73 87 95 97 95 92
88 77 74 77 79 83 81 68 63 75 93 101 101 99 100 100 100 100 100 100 101 98 89 86 87 86 85 85 80 69 61 58 58 61 62 59 61 70 79 77 76 79 73 69 67 56 62 90 94 80 89 100 98 99 101 99 98 96 96 95 85 77 85 95 96 93 91 93 97 99 99 99 94 88
89 75 69 71 77 85 84 76 72 75 87 100 102 99 100 100 100 101 100 99 101 102 98 94 90 88 91 93 91 86 80 73 66 60 54 53 61 75 83 80 78 77 70 68 69 65 75 96 94 85 94 100 96 99 102 97 95 96 98 95 87 79 79 81 81 83 88 91 92 94 97 98 96 94
94 81 71 70 74 81 82 82 82 84 91 101 102 98 99 101 100 99 98 98 100 99 99 99 97 96 98 99 99 100 98 92 79 65 58 63 75 83 83 79 78 77 72 73 78 82 92 100 93 89 96 99 97 100 101 97 98 100 97 91 85 81 81 85 86 83 80 77 75 78 77 72 76 88
94 83 76 72 72 74 74 74 78 86 95 101 100 99 101 101 98 95 95 97 95 92 94 99 100 100 100 100 100 100 100 100 95 86 82 85 89 87 82 78 78 76 74 79 89 95 99 97 94 95 97 97 99 100 98 100 101 100 100 96 89 87 89 93 93 90 87 83 80 79 69 54 60 83
87 78 74 71 71 74 72 67 73 88 97 100 100 101 100 96 94 94 95 94 88 86 93 100 100 100 100 100 101 100 98 99 100 99 98 97 93 87 81 80 82 85 88 91 94 97 97 94 94 97 94 94 97 93 91 97 99 98 98 92 85 87 92 92 92 93 95 93 91 87 72 63 77 95
77 73 75 75 75 78 72 65 77 92 98 99 100 99 97 96 98 99 97 92 87 88 95 99 100 101 101 99 100 99 95 97 101 100 101 99 90 80 80 84 88 94 99 97 95 96 96 92 93 93 90 92 96 94 91 94 96 97 96 90 89 94 94 92 94 97 95 90 84 79 70 71 86 95
75 73 80 82 81 78 69 69 85 98 99 100 99 96 97 100 102 102 100 96 93 93 95 96 98 100 99 98 100 99 95 97 100 99 100 99 87 79 88 97 97 97 100 99 97 98 95 91 92 91 88 91 97 98 97 97 97 98 98 96 98 97 94 95 99 99 96 88 77 75 81 88 90 89
82 76 77 78 76 71 66 75 92 100 99 100 98 96 99 102 101 100 101 101 98 95 94 94 93 94 92 90 96 100 98 98 100 98 99 100 91 87 96 103 101 100 101 100 99 99 95 92 92 89 86 89 96 99 100 99 98 98 98 100 100 97 97 101 99 95 98 94 81 77 86 95 97 95
78 72 71 71 71 69 71 84 98 101 100 100 98 96 99 101 97 94 97 101 99 95 94 92 89 88 83 79 88 99 101 99 101 100 99 99 97 96 99 102 101 101 100 99 99 98 95 92 91 88 84 84 92 99 100 99 100 99 99 100 99 96 97 100 98 95 99 99 91 84 82 82 85 91
72 75 78 84 88 82 79 89 100 101 99 100 99 98 99 100 97 94 95 98 95 90 88 86 86 87 82 78 89 102 101 98 100 101 100 99 100 99 99 102 102 98 95 96 96 94 92 90 88 86 82 80 87 98 101 100 100 100 99 99 97 94 95 99 101 99 99 100 100 98 95 92 88 86
81 89 91 95 95 85 81 92 101 100 100 101 100 100 101 100 97 91 88 85 82 82 84 86 90 95 93 91 97 102 100 98 99 99 98 99 101 100 99 101 101 96 92 94 95 93 90 87 84 82 79 77 81 90 97 100 100 99 100 100 98 97 98 99 100 99 97 97 99 98 97 99 97 92
94 100 98 94 86 75 78 93 101 100 100 101 100 100 101 99 94 90 88 86 85 88 94 96 98 100 101 100 101 100 100 100 100 99 98 98 99 99 98 101 102 98 95 97 100 97 89 83 81 79 76 74 73 76 89 99 100 99 101 100 97 97 96 95 97 99 98 97 98 98 95 92 93 95
100 99 95 89 78 71 77 91 99 100 101 101 100 101 101 98 96 95 94 92 92 96 101 102 101 98 99 100 100 100 101 100 99 100 100 98 99 99 100 100 99 98 98 99 101 100 90 80 78 77 74 71 68 69 80 90 94 98 101 97 94 92 90 91 96 100 101 99 99 100 97 91 90 91
100 98 94 84 72 71 81 94 100 101 100 100 100 101 101 99 99 99 96 94 96 99 101 103 101 97 95 95 95 97 100 101 100 101 100 99 100 100 100 101 98 96 98 99 100 100 91 77 74 75 73 70 68 71 75 77 83 96 101 96 94 93 90 95 101 101 99 101 101 100 98 95 94 94
97 100 99 90 81 84 93 100 101 100 100 99 99 101 102 100 99 99 99 99 100 101 100 102 102 99 97 96 94 96 100 100 99 100 101 101 101 98 98 101 99 95 97 99 99 97 88 76 70 72 72 70 68 70 74 72 76 90 99 98 99 99 96 97 101 99 96 98 100 100 99 99 99 99
97 101 100 97 97 98 99 99 97 97 97 95 95 97 101 101 100 100 100 99 99 100 101 101 101 100 100 100 99 99 101 100 99 99 98 96 97 96 96 99 98 95 96 99 97 93 86 78 71 68 68 70 69 69 72 72 73 84 96 101 99 97 97 99 100 97 93 94 97 99 100 100 100 100
100 101 99 99 100 99 98 98 98 97 95 93 92 93 94 97 100 100 100 99 98 99 100 100 100 100 100 100 100 100 101 101 98 93 89 89 93 96 98 100 100 98 99 101 99 94 85 76 70 67 66 70 74 73 72 72 70 76 91 100 96 92 95 100 100 97 91 89 92 97 99 100 100 99
100 100 100 100 100 99 99 100 100 100 99 98 98 97 94 95 97 98 100 101 99 100 101 100 100 101 100 100 101 101 101 101 98 92 90 93 96 99 101 101 100 99 100 101 100 94 83 72 67 63 63 70 76 74 72 72 70 72 85 96 98 97 98 98 99 99 95 90 90 94 96 98 100 101
100 100 100 100 100 100 100 100 100 100 101 101 101 101 101 99 96 95 99 100 97 98 102 100 99 100 100 100 102 102 100 101 101 99 98 98 98 100 102 100 99 101 100 98 99 98 90 77 65 59 67 82 86 78 73 74 72 72 81 91 98 101 99 95 96 100 99 95 95 97 97 96 98 100
100 100 100 100 100 100 100 100 100 100 101 100 97 94 97 101 98 93 96 99 97 97 100 101 100 101 101 100 101 101 100 101 101 99 99 98 96 98 99 99 100 101 96 93 96 98 91 78 64 62 79 97 99 90 84 80 74 73 78 86 96 102 99 93 93 99 100 97 97 99 98 96 97 99
100 100 100 100 100 100 100 101 100 100 101 99 94 89 91 98 101 94 90 95 99 99 100 100 100 100 99 99 100 101 99 100 101 99 98 98 97 97 98 99 100 101 99 96 93 88 82 79 78 83 95 102 100 98 96 87 77 74 77 83 95 102 100 96 96 97 97 97 98 99 98 94 94 99
100 101 101 101 101 100 100 100 100 100 100 99 99 96 92 97 102 96 89 94 101 100 99 101 101 100 99 99 101 101 98 98 100 101 99 99 98 96 96 95 93 94 99 100 91 82 83 90 95 98 101 99 97 99 100 94 87 86 85 89 97 101 100 99 99 97 96 97 98 99 97 92 92 98
100 101 101 102 102 101 101 101 101 101 100 99 101 101 97 98 102 97 92 97 101 100 100 101 99 99 100 100 100 101 100 98 100 101 99 100 98 94 92 93 90 90 97 101 96 92 95 101 100 97 96 95 96 99 101 99 98 96 91 91 97 101 100 100 100 99 98 99 99 99 98 96 96 99
100 100 100 101 101 100 101 102 102 102 101 99 100 102 100 100 101 99 97 100 101 100 101 101 97 96 98 99 99 101 101 101 101 100 97 98 98 96 94 96 96 95 98 101 98 95 95 97 97 93 89 88 90 96 99 99 99 97 92 90 95 99 99 100 100 100 98 98 99 99 99 99 99 97
100 101 100 100 101 101 101 100 100 101 101 97 96 99 101 101 100 100 100 100 100 101 101 100 97 95 97 99 101 100 100 101 101 99 96 95 98 99 98 98 100 100 100 100 98 93 89 88 88 87 85 84 87 93 98 99 100 98 94 91 94 98 100 101 100 100 99 98 97 97 98 99 99 97
Wind_Speed
37 35 32 30 33 35 35 37 40 41 41 42 41 43 44 44 42 38 32 34 41 44 43 41 40 38 34 31 30 31 32 32 30 29 31 33 32 30 30 29 29 28 28 28 26 24 24 24 24 26 28 29 29 29 29 27 27 27 27 27 27 26 25 25 24 23 23 23 24 27 29 30 31 31
41 40 38 34 33 33 32 34 38 40 41 41 41 42 44 44 46 45 39 38 41 43 43 42 40 38 35 32 30 29 30 30 28 28 30 31 31 29 28 28 29 29 29 30 29 29 29 28 28 29 30 30 30 29 28 27 27 27 27 27 27 26 25 25 25 24 23 23 24 26 28 31 31 31
44 43 41 38 34 33 32 33 36 39 41 41 41 42 44 44 46 47 45 44 45 43 42 42 40 37 35 33 31 30 30 29 27 27 29 29 29 28 28 29 30 30 31 31 32 33 32 31 31 31 31 31 30 28 26 26 26 27 27 28 27 26 26 25 25 24 24 25 25 25 26 28 31 32
46 46 45 43 40 36 34 33 34 36 39 42 42 42 44 44 45 46 46 49 49 44 41 42 40 37 35 32 31 30 29 29 27 28 29 28 28 28 30 31 31 31 32 33 34 34 33 31 31 32 32 32 31 29 27 26 26 26 27 27 26 25 25 26 26 25 25 25 25 24 24 25 28 31
45 47 47 48 47 43 40 37 35 35 37 40 42 43 44 45 45 45 46 49 51 47 44 44 42 39 36 34 33 31 30 29 29 30 30 29 29 31 32 33 33 33 34 35 34 33 32 32 32 33 33 33 32 31 29 26 26 26 26 25 26 25 26 26 26 26 26 26 27 26 26 26 28 30
42 43 46 48 48 46 46 44 40 38 38 41 43 43 44 45 46 46 47 49 50 48 45 43 42 40 37 36 36 34 33 32 30 31 32 32 32 33 33 34 35 35 35 34 33 32 32 32 32 33 34 33 32 31 29 27 26 26 26 26 26 27 29 29 29 29 30 31 32 32 31 30 31 31
41 41 43 45 46 45 46 47 45 42 40 40 43 44 44 46 47 47 46 48 50 49 45 43 42 40 38 37 36 35 33 32 31 32 33 33 33 33 34 35 36 35 34 34 33 31 31 32 33 34 34 34 33 32 30 29 28 29 29 29 30 32 34 35 34 35 35 35 35 34 33 32 32 32
42 40 39 41 42 39 40 43 42 42 42 42 43 45 46 47 48 48 47 48 49 49 47 45 42 40 39 38 36 33 32 31 32 32 32 33 33 34 35 36 36 35 34 33 33 31 31 32 33 34 35 34 33 32 31 31 31 32 32 33 34 35 35 36 36 36 35 35 34 34 33 32 32 32
41 40 39 40 37 33 34 38 38 37 39 43 45 46 47 48 48 47 47 48 49 49 48 46 43 40 38 36 34 32 30 30 32 33 33 33 34 35 35 35 35 34 33 33 32 31 31 31 33 34 34 34 32 32 32 32 32 32 32 33 34 35 35 35 35 35 34 34 34 34 33 32 32 32
38 38 38 38 37 34 35 39 42 39 37 39 44 47 47 48 48 47 48 49 49 48 48 46 43 41 38 35 34 32 30 31 32 34 34 35 34 34 34 34 35 34 33 32 31 30 30 31 32 34 33 32 32 32 31 31 32 32 33 33 34 34 35 34 34 34 33 33 33 33 33 32 31 32
38 38 37 37 38 40 40 40 43 45 43 40 41 44 47 46 46 47 48 49 48 47 46 45 44 42 39 36 35 33 30 31 33 34 34 35 35 34 34 34 34 32 31 31 30 29 30 31 32 32 31 32 32 31 31 31 32 32 32 33 33 33 33 33 32 33 33 32 32 32 31 30 30 31
38 38 38 38 39 41 44 46 46 45 45 43 39 41 45 45 45 47 48 48 47 46 45 44 44 42 40 37 36 33 31 32 35 36 35 36 37 35 34 34 32 30 29 30 29 29 29 30 30 30 31 31 30 29 30 31 31 31 31 31 31 31 31 31 31 31 31 31 30 30 29 28 28 29
36 38 39 40 42 42 42 46 47 44 44 45 42 40 42 44 45 46 47 47 47 46 44 44 43 42 40 39 37 34 34 36 37 37 36 37 36 34 33 33 31 29 28 29 29 29 28 28 29 30 30 30 28 28 29 29 29 29 29 29 28 29 29 29 29 29 29 29 28 28 27 26 27 28
41 42 43 44 45 44 41 42 46 46 45 47 46 42 41 44 46 45 46 47 46 46 45 43 43 43 42 41 38 36 36 36 37 36 36 36 35 33 32 32 31 29 27 29 29 27 25 27 29 29 28 27 26 27 28 27 26 25 25 26 26 26 26 26 26 26 26 26 25 25 24 24 26 26
45 45 46 46 45 44 42 40 42 46 47 46 45 41 40 44 47 46 46 47 46 46 44 42 43 44 42 40 37 36 36 37 37 37 36 35 34 32 32 32 31 27 25 26 27 25 23 24 26 25 24 23 23 25 24 23 22 22 22 22 22 22 23 23 23 23 23 23 22 22 22 23 24 24
46 46 46 46 45 44 42 38 38 42 44 43 43 41 39 42 47 48 47 47 45 44 43 42 43 43 39 36 35 35 36 37 38 36 35 34 33 32 32 33 31 26 22 22 23 24 21 20 22 22 20 20 21 21 21 20 20 20 19 18 18 18 19 19 20 21 21 21 21 21 22 22 22 23
46 46 44 42 41 41 40 38 36 37 39 39 39 39 37 39 45 47 46 45 45 43 41 41 42 39 35 33 33 33 35 37 36 35 34 33 32 33 33 33 30 25 22 20 22 24 20 16 19 20 17 17 19 19 17 17 18 16 14 14 15 16 18 19 20 21 21 21 22 21 21 20 20 22
44 44 42 39 38 39 39 38 36 34 35 36 35 35 35 36 42 46 44 42 42 42 39 37 36 34 31 31 31 31 34 35 33 32 32 30 31 31 31 29 26 23 21 20 22 23 17 14 18 18 15 16 18 16 15 15 16 14 13 14 16 17 18 19 20 21 21 21 21 21 20 20 20 20
43 43 42 41 41 41 40 39 37 35 34 35 33 30 31 35 41 45 44 39 39 39 37 34 33 31 30 29 30 32 33 32 30 30 28 26 25 25 26 26 24 23 21 20 22 20 13 12 15 15 14 16 16 14 14 14 14 13 13 14 16 17 18 18 18 19 19 19 19 20 20 20 20 20
41 42 42 41 40 40 39 38 37 35 33 33 32 29 31 35 40 43 43 38 37 36 35 34 33 31 30 29 30 32 31 30 29 28 26 24 23 22 24 25 24 22 20 20 20 17 13 12 13 12 12 15 15 14 12 12 12 13 14 15 16 15 14 13 13 14 15 15 17 18 20 21 21 21
39 41 40 39 38 37 35 35 35 34 32 32 33 31 33 37 39 41 41 37 34 33 33 32 31 29 30 31 30 30 30 28 27 27 28 28 27 26 27 26 23 21 20 20 17 15 13 12 11 11 12 15 15 13 11 10 11 13 14 14 13 11 9 9 10 12 13 14 16 17 18 18 19 19
38 39 38 36 36 34 32 32 33 32 30 32 32 31 35 38 38 40 40 37 33 31 29 28 26 25 27 28 27 26 25 25 26 28 30 29 28 28 27 24 21 19 19 18 16 14 13 11 10 11 11 14 15 12 8 8 9 10 9 8 7 6 7 8 9 11 13 15 16 16 16 16 15 16
36 37 37 36 35 33 32 32 32 30 29 31 30 31 35 38 38 38 39 36 32 31 29 27 25 23 23 23 23 23 22 23 24 25 27 26 24 24 23 21 20 19 18 17 15 14 12 9 10 11 11 14 15 11 6 6 7 5 4 3 4 5 6 8 10 12 14 15 16 16 16 16 15 15
35 36 36 36 33 30 29 32 33 31 29 29 30 34 36 39 38 36 35 31 29 29 30 30 28 25 23 21 22 22 22 23 24 22 22 22 21 20 20 21 22 18 17 17 16 15 13 10 10 11 12 14 15 12 8 6 6 5 2 1 2 4 7 9 10 11 11 11 12 14 15 15 14 14
33 33 33 34 31 27 26 31 33 30 27 26 30 34 37 36 32 30 30 29 28 28 29 31 32 30 26 22 22 22 21 25 26 22 19 20 19 18 20 23 22 17 15 17 17 15 14 12 10 9 10 12 12 11 10 8 7 7 4 2 3 5 7 8 8 8 8 9 10 12 13 13 12 13
28 29 29 29 27 23 23 28 30 27 23 23 26 30 32 28 25 26 28 27 26 26 27 29 32 34 31 26 24 23 21 24 27 25 20 18 18 19 21 22 20 17 14 15 16 15 14 13 9 7 8 10 9 9 10 9 7 7 5 3 3 4 5 6 6 7 7 8 9 9 10 11 12 12
23 24 25 25 22 19 21 25 25 22 20 19 22 27 24 21 23 26 27 25 24 23 24 26 29 34 34 30 26 23 23 24 26 26 22 18 17 22 24 21 18 16 13 11 13 14 14 12 9 6 7 8 8 7 8 7 6 6 5 2 1 3 5 5 4 6 8 7 5 5 6 7 9 11
19 20 21 20 16 15 19 20 19 18 16 13 18 22 18 20 24 24 24 24 22 21 22 24 27 31 34 35 30 25 25 26 25 24 23 19 18 23 23 20 18 17 15 13 12 13 14 12 9 7 7 6 6 7 7 6 5 7 7 5 5 6 7 7 5 5 9 10 6 4 6 7 7 9
18 19 18 14 12 13 16 16 16 16 12 6 14 19 19 23 25 22 22 22 21 21 21 22 26 29 31 35 35 29 26 26 23 23 24 21 21 23 21 17 17 18 17 16 14 14 14 13 10 8 7 4 5 7 8 7 7 6 6 6 6 6 8 9 7 6 9 11 9 6 6 8 9 7
16 17 13 10 10 11 13 12 12 12 8 4 9 15 20 25 25 21 21 21 20 20 20 21 25 28 29 34 37 31 27 26 23 22 24 23 23 25 22 17 18 19 18 18 16 14 15 14 11 10 7 4 4 7 9 9 9 8 7 5 5 5 6 8 8 7 7 8 9 9 8 6 7 8
14 14 11 6 8 10 12 11 10 8 6 5 7 12 20 27 25 20 18 18 16 16 18 20 24 26 27 34 37 30 27 29 26 23 23 23 23 25 22 18 18 18 18 17 16 15 15 15 14 11 8 6 5 7 10 10 9 9 9 7 6 6 6 7 8 8 7 6 6 8 10 9 7 4
11 12 9 4 7 10 11 8 7 6 5 6 8 11 16 23 25 20 16 16 16 15 16 17 20 21 23 31 37 32 27 30 30 26 23 22 22 23 22 19 18 18 17 16 15 16 16 16 15 13 9 7 5 5 9 10 9 9 9 7 6 6 6 6 8 9 9 8 8 8 9 9 9 9
11 10 5 3 8 10 8 5 5 6 6 6 7 8 11 17 23 21 18 17 17 17 16 15 18 21 23 29 37 36 29 29 31 29 26 24 22 21 21 20 19 18 17 16 16 17 18 18 17 13 10 7 5 5 8 10 9 8 7 5 4 4 6 7 8 10 10 9 9 9 10 10 9 9
10 8 1 5 7 8 7 6 6 7 6 5 6 9 11 14 18 21 20 19 19 18 16 14 16 20 24 28 35 38 34 30 30 29 28 26 24 23 22 21 19 17 17 16 17 18 19 19 17 14 11 8 6 6 8 10 10 9 7 5 5 5 6 8 10 10 11 10 9 9 11 13 13 12
8 6 2 5 7 8 7 6 6 6 6 5 6 10 12 12 14 18 20 20 20 18 15 14 15 18 21 25 31 36 36 33 31 31 29 28 26 24 23 20 18 17 17 18 19 19 19 19 18 16 12 9 7 7 8 9 10 10 8 6 6 5 7 9 10 10 10 10 9 10 13 15 14 14
9 8 7 4 4 5 4 3 2 4 5 5 5 9 13 12 13 18 19 17 16 16 15 14 17 20 22 25 28 31 32 31 31 32 32 31 28 24 21 19 17 17 17 18 19 19 19 19 18 16 14 10 8 8 8 8 9 10 10 8 6 5 7 9 9 10 11 11 11 12 15 16 15 14
18 16 14 11 6 4 2 2 2 3 5 5 5 9 12 13 14 17 16 13 12 13 13 14 18 21 22 23 24 25 25 25 26 28 30 30 27 24 21 19 17 17 17 18 18 18 19 19 18 17 15 12 10 10 10 9 8 9 10 9 6 6 8 8 8 9 10 12 13 13 13 13 14 15
23 21 19 16 13 10 8 7 7 5 4 5 5 7 9 12 15 15 13 12 13 13 13 15 17 18 18 20 23 24 23 23 23 25 26 26 25 23 21 19 17 16 16 16 17 17 18 18 18 17 15 13 11 11 11 11 10 9 10 9 7 7 8 7 9 10 9 10 11 12 10 9 11 12
24 23 22 20 17 15 13 12 9 5 3 1 3 4 5 6 12 16 14 12 12 13 13 15 15 15 18 22 23 23 22 22 23 24 24 23 23 21 20 19 18 17 16 15 15 15 16 17 19 18 15 13 11 11 11 11 10 9 9 9 9 7 6 7 9 9 7 7 8 9 9 9 9 8
23 21 20 19 18 15 13 11 7 4 3 3 2 6 5 3 9 16 16 12 11 12 13 14 14 15 20 23 22 21 22 22 22 22 22 22 21 19 18 19 19 19 18 17 16 14 13 13 15 17 16 13 11 10 10 9 10 9 7 8 9 8 5 6 8 6 4 5 7 7 8 9 9 7
21 20 19 17 15 13 11 8 7 6 5 5 2 6 8 4 7 14 17 13 12 13 13 13 14 18 22 22 21 21 22 22 20 20 21 21 20 17 16 17 19 19 18 18 17 15 12 12 14 15 15 13 11 11 10 9 9 8 7 7 10 10 7 5 6 5 5 5 6 7 7 7 7 5
21 19 17 15 13 11 9 7 7 7 6 5 3 3 7 4 4 12 16 12 11 13 13 13 16 20 21 21 20 21 21 20 19 19 19 19 19 17 15 16 17 17 16 18 19 16 13 13 15 14 13 13 13 11 10 9 8 8 7 8 11 11 8 6 6 6 6 6 6 6 6 6 6 5
22 19 16 14 11 9 8 7 6 5 4 6 6 2 4 2 3 10 13 11 10 12 13 14 19 21 20 20 21 20 19 18 17 16 16 17 18 18 17 16 17 16 16 18 19 17 15 15 16 14 12 13 12 11 11 10 9 8 7 8 10 12 10 7 7 6 6 7 8 7 5 5 5 5
23 20 17 15 12 9 7 6 6 4 4 6 7 5 3 1 4 9 12 10 9 10 11 14 20 22 20 21 21 18 17 16 13 11 12 14 16 18 18 18 19 18 17 17 18 17 16 15 15 14 14 11 9 9 11 10 8 7 7 7 9 10 11 9 8 7 6 7 8 8 7 7 7 7
23 21 19 16 13 10 7 5 5 4 4 6 6 5 3 3 6 9 10 9 9 9 10 14 20 22 21 20 18 16 16 15 11 8 9 11 13 16 19 20 20 19 17 17 17 17 17 15 14 14 15 12 8 8 10 11 9 8 8 8 8 9 9 9 8 8 8 7 8 7 6 6 7 9
Wind_Direction
269 271 274 276 276 272 270 270 269 269 267 266 265 263 260 257 255 255 257 259 264 269 270 272 275 274 271 267 262 259 259 259 256 251 249 251 252 253 254 256 258 259 259 261 262 263 266 269 270 269 268 266 265 264 264 268 270 270 271 272 271 271 271 270 269 270 270 271 271 266 261 260 260 259
269 270 271 274 277 275 270 268 269 268 266 265 264 262 260 258 254 252 254 257 261 264 267 269 272 274 274 270 265 260 258 258 254 249 247 248 250 252 253 254 255 256 259 261 263 264 267 270 270 270 269 268 266 265 265 267 268 268 269 269 269 268 268 268 269 269 270 270 270 269 265 262 262 262
272 270 269 270 274 275 274 270 268 268 266 265 264 262 260 258 255 253 251 254 259 260 262 266 269 272 274 271 266 261 258 256 252 249 247 247 249 251 252 253 255 257 259 261 264 267 269 271 271 270 270 268 267 266 265 266 266 265 265 265 266 266 266 266 266 266 268 269 269 270 269 266 264 264
273 272 269 266 266 269 272 272 269 267 266 265 263 262 261 259 257 254 248 249 255 258 258 262 266 268 269 268 265 261 258 255 251 249 249 248 248 249 251 253 255 257 260 264 267 269 271 272 271 270 268 268 267 265 263 263 263 264 264 265 266 267 266 265 264 265 267 269 270 270 271 271 269 268
274 274 272 268 264 263 265 267 267 265 264 265 263 261 260 258 256 253 248 248 253 256 257 258 260 263 264 264 262 260 257 254 252 251 252 250 247 248 251 254 257 259 263 267 269 271 272 272 271 269 268 268 267 265 264 264 264 264 264 264 263 263 263 263 264 264 264 264 265 266 267 269 271 272
276 275 274 271 268 264 261 262 264 264 263 262 262 260 257 256 255 254 251 248 250 252 253 255 257 258 259 259 259 259 257 256 253 252 253 252 249 250 252 256 259 263 266 269 270 271 273 272 271 269 268 268 267 265 264 264 264 263 264 263 261 259 258 258 260 260 260 261 262 264 267 269 271 272
283 280 277 274 271 268 263 260 260 261 260 260 259 258 257 255 256 256 253 248 248 249 250 253 255 255 255 255 257 258 258 257 254 252 252 252 251 251 253 257 261 264 266 269 271 272 272 271 269 267 267 267 267 265 263 264 263 261 262 261 259 258 258 258 260 261 262 264 265 266 268 269 270 271
287 285 280 275 274 274 268 262 261 260 257 256 257 258 256 255 255 255 252 248 247 248 250 251 253 254 254 255 256 257 256 255 253 252 251 249 250 251 254 258 261 264 266 268 270 271 270 269 267 266 266 266 266 265 264 264 263 262 262 261 261 261 261 261 262 262 263 264 265 266 267 268 269 270
287 285 280 274 272 273 267 258 257 260 258 255 256 257 257 256 254 253 251 248 246 246 247 249 251 252 253 253 253 254 253 252 252 252 251 249 250 252 254 257 260 262 265 267 269 270 269 267 265 264 265 266 265 265 264 264 264 263 262 262 261 261 261 261 262 262 263 263 264 265 266 267 268 269
287 284 279 273 266 264 264 257 251 253 258 258 256 255 255 255 253 250 248 245 244 243 245 247 248 249 250 249 250 250 249 249 251 252 253 252 251 251 253 256 259 261 263 266 268 269 267 265 264 264 266 267 266 265 265 265 264 262 261 260 260 260 260 261 261 261 262 262 263 264 264 266 267 268
293 289 285 278 266 256 256 257 254 252 254 259 260 255 252 252 250 247 245 243 240 239 241 244 245 246 248 248 248 250 249 249 250 251 252 253 253 253 254 256 258 261 263 265 267 267 266 265 265 265 266 266 266 266 266 265 263 261 260 259 259 260 260 260 260 260 260 261 261 263 264 266 268 269
294 291 288 284 277 265 255 252 252 252 252 257 263 259 253 250 247 244 243 240 236 235 238 242 243 243 245 245 246 247 246 245 247 248 250 253 254 255 255 256 258 261 263 264 265 265 266 267 267 267 267 266 266 266 265 263 262 261 260 259 259 259 258 259 258 258 259 260 261 262 263 266 269 270
282 283 283 281 281 280 269 256 253 254 254 255 260 262 255 248 245 243 241 237 233 234 237 239 240 241 241 242 243 243 243 244 246 248 249 252 254 255 256 257 257 258 260 263 264 263 263 266 267 267 267 267 268 267 265 263 261 259 258 257 257 257 257 257 257 258 258 259 260 261 264 267 269 270
283 282 284 283 282 282 279 266 256 253 253 251 252 258 257 249 244 242 239 235 233 233 236 238 238 238 239 240 241 243 245 247 247 248 249 251 253 254 255 256 256 256 258 262 264 262 262 264 265 265 266 268 266 265 264 262 259 256 253 253 253 254 255 255 255 256 257 259 260 261 264 268 270 269
289 287 287 286 283 282 280 273 261 253 251 249 248 252 255 251 246 243 239 235 233 233 235 237 236 237 239 241 243 244 246 247 246 247 249 250 251 251 251 254 257 257 256 259 262 261 258 261 263 264 265 266 263 261 260 258 256 254 252 253 253 253 254 254 255 257 258 259 261 263 265 268 269 269
290 289 288 286 284 283 279 275 268 259 253 251 249 248 251 250 247 247 244 239 236 235 236 235 234 236 239 241 244 246 247 246 246 246 248 249 249 250 250 252 255 255 254 256 259 257 254 256 261 262 263 263 259 256 255 252 251 253 255 257 258 258 258 257 257 258 259 260 260 262 264 265 268 270
287 286 285 283 281 282 280 275 269 262 255 254 252 248 248 246 243 246 249 246 243 241 239 238 237 238 239 243 247 249 248 246 245 245 247 248 249 250 250 251 253 255 254 253 254 254 252 250 254 259 260 257 253 252 250 249 250 252 255 259 260 260 259 257 256 257 257 259 260 260 262 263 266 270
284 282 280 277 274 276 277 273 267 261 257 257 255 250 249 246 240 241 246 244 242 241 240 240 241 239 240 246 250 251 249 246 244 246 249 250 250 250 251 252 253 251 247 244 247 252 248 238 246 255 254 249 248 246 242 243 249 251 251 255 257 257 258 259 260 261 260 260 260 259 261 262 261 264
281 278 276 275 275 275 275 271 264 258 255 256 257 255 254 248 239 238 239 235 232 235 236 235 236 238 241 246 249 249 247 245 245 248 250 250 250 250 251 250 245 240 234 231 238 245 235 226 243 251 248 244 240 234 236 244 253 257 255 255 256 256 259 262 264 264 261 258 258 259 261 262 260 258
279 277 275 273 273 274 274 270 261 254 253 255 258 262 260 249 238 236 238 233 228 230 231 230 232 237 241 244 245 244 244 244 245 245 240 236 235 235 237 236 233 229 224 222 231 237 224 221 242 248 239 233 224 223 238 250 257 263 265 263 260 256 258 264 268 269 268 263 261 261 262 263 261 257
279 277 274 271 272 273 269 264 258 251 250 251 256 262 260 247 235 233 235 232 225 226 230 232 234 237 241 242 241 240 242 243 240 235 229 225 222 220 223 225 223 218 213 214 223 227 215 217 238 242 228 219 213 215 231 242 254 268 270 263 257 252 254 266 266 259 258 258 259 262 265 266 264 260
279 277 274 270 272 273 267 260 254 250 250 250 255 262 257 241 229 228 231 227 219 217 224 233 237 240 240 238 234 232 235 238 234 228 226 224 218 216 221 222 216 207 206 209 212 211 206 214 235 235 218 208 206 207 217 237 261 280 278 260 254 256 262 274 270 254 248 249 252 259 265 264 261 260
281 277 275 271 270 270 265 256 248 246 247 247 254 263 252 232 223 225 228 223 215 210 212 220 229 235 233 229 226 222 221 228 232 226 223 222 217 217 220 212 201 197 197 198 198 197 198 213 229 223 207 202 205 205 205 225 248 271 281 258 259 272 278 285 284 270 259 255 254 259 262 256 252 257
284 280 277 273 271 269 259 248 244 245 245 246 258 263 244 226 223 228 225 216 211 209 209 210 213 220 222 220 224 222 214 218 227 225 217 215 216 218 214 200 192 194 193 187 185 189 196 207 216 209 198 199 203 205 207 214 221 228 236 221 238 274 286 289 288 278 268 262 259 260 260 252 246 254
282 282 279 275 275 273 257 243 242 246 249 255 262 254 236 227 229 226 214 206 207 211 213 210 208 212 215 214 220 223 215 213 221 224 217 212 213 210 201 194 190 185 181 182 185 191 198 203 203 199 195 194 198 205 209 215 225 233 245 267 277 300 310 303 297 291 281 273 269 266 257 243 238 250
281 282 281 279 281 276 257 243 240 247 261 267 253 235 228 229 226 212 201 201 208 212 215 215 212 212 211 208 212 220 218 211 215 222 220 215 208 197 189 190 188 177 174 185 193 196 200 198 196 197 195 193 195 196 197 207 226 232 236 259 282 321 332 313 301 311 309 290 276 269 255 238 238 248
285 286 287 287 287 273 253 245 243 253 277 272 236 219 219 218 209 201 198 202 209 213 215 217 217 215 211 206 205 213 218 212 211 216 218 213 199 185 180 181 181 173 174 186 193 199 201 197 197 203 196 192 192 183 179 189 204 202 194 181 102 41 14 347 329 349 355 341 300 270 262 254 254 256
285 290 295 294 288 264 246 245 251 266 288 269 218 206 203 198 196 196 197 201 207 211 214 218 218 216 213 207 203 208 216 216 213 214 213 206 191 183 179 179 180 180 183 188 191 199 202 200 203 207 195 185 183 173 162 152 154 168 169 140 98 69 45 35 32 19 9 5 352 299 280 277 274 264
283 288 294 286 272 254 242 248 263 275 287 253 199 195 191 191 196 198 198 201 207 211 216 220 219 216 213 208 204 205 211 215 214 211 207 200 190 186 184 185 189 192 193 192 193 200 204 205 209 208 199 187 176 166 155 135 118 125 130 114 100 83 60 54 55 41 20 20 24 8 317 288 283 278
284 287 290 270 253 245 238 248 267 268 264 226 192 193 193 194 199 204 202 204 211 218 223 225 220 216 213 207 203 203 207 209 206 198 195 193 191 191 191 192 195 198 199 198 199 203 205 208 211 209 204 203 189 169 155 135 110 97 99 106 110 98 72 59 57 50 33 29 34 34 22 348 303 286
288 290 291 260 229 228 230 244 267 269 254 229 203 195 196 198 203 209 210 212 219 225 230 229 221 213 209 205 201 198 200 203 201 195 191 191 192 194 196 199 202 202 201 200 201 205 208 209 210 208 205 205 198 176 161 150 127 105 102 104 103 97 81 59 45 39 32 21 13 15 19 22 21 355
304 301 295 240 199 215 227 244 268 264 241 229 216 200 196 201 207 212 215 219 225 230 232 229 216 204 200 200 198 195 194 197 200 202 200 197 197 197 199 205 209 208 207 206 206 208 209 208 207 206 206 209 206 180 169 165 145 116 107 104 96 92 88 69 44 32 26 19 13 11 9 13 24 37
326 320 302 195 192 214 224 233 252 242 223 226 227 203 190 201 208 211 214 218 223 225 225 222 210 200 197 197 196 197 197 193 195 201 204 203 204 205 206 210 213 213 214 213 210 209 207 206 207 207 207 210 207 183 173 169 154 136 130 127 116 98 84 70 50 35 29 29 32 34 29 24 24 27
336 340 341 164 180 203 215 224 240 234 219 229 230 199 188 199 206 209 215 220 223 224 219 212 207 203 200 197 197 200 202 198 194 197 201 203 207 210 211 213 215 216 215 210 207 207 205 204 207 209 208 208 202 181 170 161 153 153 152 134 113 96 81 71 60 43 31 30 36 43 44 42 41 40
347 4 73 161 184 198 213 231 239 223 210 222 220 195 190 196 203 209 215 218 221 225 218 203 200 199 196 196 197 200 204 205 202 201 202 204 208 211 213 216 217 215 210 204 204 205 203 202 206 209 207 205 196 180 165 151 150 154 147 124 105 91 78 73 69 57 43 38 44 56 62 61 56 53
38 50 71 100 171 199 213 237 233 205 200 208 205 192 190 190 195 206 215 216 218 224 218 200 193 192 190 193 197 200 205 209 209 207 207 207 208 210 212 214 213 210 204 201 201 201 199 201 205 207 203 196 185 175 162 148 149 152 145 140 135 106 82 74 72 67 56 50 54 61 67 68 64 60
62 67 72 72 82 108 106 95 123 152 174 187 199 202 203 204 200 202 209 216 219 222 218 204 196 193 192 194 195 196 199 201 200 199 200 202 204 205 205 204 202 200 198 196 195 197 198 200 203 204 200 190 177 170 162 154 154 156 157 163 160 117 94 84 80 76 66 57 56 60 64 63 60 61
62 67 71 73 79 87 86 92 102 104 121 159 181 191 202 214 215 208 206 213 220 224 219 208 200 195 191 189 186 184 184 184 182 182 185 189 192 194 192 190 186 186 187 187 189 196 200 200 201 201 196 187 178 170 162 157 156 158 167 177 163 124 113 110 97 84 73 62 56 57 59 56 52 56
57 61 67 71 77 82 85 91 99 95 80 124 190 190 184 198 208 209 209 212 219 224 218 208 202 193 184 181 179 177 177 176 174 174 176 179 182 183 182 181 180 180 181 180 183 190 193 194 197 195 182 171 171 171 164 161 161 160 169 177 168 151 140 130 112 96 83 73 63 56 54 54 53 54
52 55 60 66 73 79 85 91 96 90 42 6 272 240 241 194 182 197 207 212 216 222 219 211 201 185 177 177 178 175 173 171 171 174 176 177 178 181 180 178 177 178 180 180 181 182 179 176 180 179 166 154 156 163 161 162 163 162 167 172 167 163 157 132 120 115 105 87 73 66 65 66 65 64
44 47 51 57 64 71 78 82 78 71 55 31 338 243 249 243 168 186 202 212 217 220 218 206 191 179 175 177 177 173 172 173 174 177 178 176 177 180 179 175 172 172 176 180 180 177 167 152 148 154 157 155 154 157 162 169 166 158 159 166 162 162 164 146 123 117 107 91 83 87 89 78 64 59
36 40 43 46 49 54 59 60 58 61 57 44 43 219 236 243 164 182 199 209 215 217 210 191 180 177 177 178 177 174 175 176 176 177 178 179 181 181 177 175 175 175 178 180 176 171 167 160 154 155 160 164 166 165 161 161 157 147 146 158 162 165 171 159 124 105 96 92 89 93 98 89 67 54
32 33 35 36 37 36 36 39 43 45 31 23 39 97 208 229 139 175 195 203 203 206 199 179 175 178 177 176 176 176 174 174 175 178 183 187 189 186 178 176 179 180 177 172 165 162 164 166 165 167 170 172 176 175 163 150 148 147 147 153 160 169 178 170 137 114 103 97 90 83 84 88 80 63
28 28 27 27 26 21 16 17 23 21 358 359 27 69 140 129 117 161 188 193 182 184 182 173 175 179 178 176 178 179 178 177 178 182 187 189 191 190 185 180 179 178 175 169 165 164 168 169 168 175 185 186 185 184 175 162 157 160 160 153 156 171 186 182 152 137 135 123 105 90 80 81 84 79
25 25 24 22 20 18 12 1 357 359 348 346 10 55 101 106 119 148 174 186 177 168 163 166 174 179 181 181 183 185 186 188 189 187 186 186 188 190 190 188 188 186 183 180 177 177 182 187 187 191 199 203 197 188 183 177 172 172 167 153 146 161 179 177 159 151 149 132 108 93 86 86 86 83